Anchorage, AK

3:26 PM AKST on February 06, 2016 (GMT -0900)
Merrill

Weather History for PAMR - January, 2012

Change the Weather History Date:

Thursday, January 12, 2012

  Actual Average Record
Temperature  
Mean Temperature 19 °F -  
Max Temperature 28 °F 20 °F 37 °F (2013)
Min Temperature 10 °F 8 °F -14 °F (2000)
Degree Days  
Heating Degree Days 46    
Moisture  
Dew Point 13 °F    
Average Humidity 84    
Maximum Humidity 93    
Minimum Humidity 73    
Precipitation  
Precipitation 0.21 in - - ()
Sea Level Pressure  
Sea Level Pressure 29.61 in    
Wind  
Wind Speed 5 mph (NW)    
Max Wind Speed 10 mph    
Max Gust Speed -    
Visibility 2 miles    
Events Fog , Snow    
Averages and records for this station are not official NWS values.
T = Trace of Precipitation, MM = Missing Value Source: NWS Daily Summary

Daily Weather History Graph

Daily Weather History Graph

Search for Another Location

Airport or City:

Trip Planner

Search our weather history database for the weather conditions in past years. The results will help you decide how hot, cold, wet, or windy it might be!

Date:

Astronomy

Jan. 12, 2012 Rise Set
Actual Time 10:02 AM AKST 4:13 PM AKST
Civil Twilight 9:04 AM AKST 5:11 PM AKST
Nautical Twilight 8:07 AM AKST 6:08 PM AKST
Astronomical Twilight 7:14 AM AKST 7:00 PM AKST
Moon 10:03 PM AKST (1/12) 10:27 AM AKST (1/12)
Length of Visible Light 8h 06m
Length of Day
6h 11m
Waning Gibbous, 86% of the Moon is Illuminated
Jan 12
Waning Gibbous
Jan 16
Last Quarter
Jan 22
New
Jan 30
First Quarter
Feb 7
Full

Hourly Weather History & Observations

Time (AKST) Temp. Windchill Dew Point Humidity Pressure Visibility Wind Dir Wind Speed Gust Speed Precip Events Conditions
12:12 AM 28.4 °F - 26.6 °F 93% 29.45 in 1.0 mi Calm Calm - 0.00 in Snow Light Snow
12:21 AM 28.4 °F - 26.6 °F 93% 29.45 in 1.5 mi Calm Calm - 0.00 in Snow Light Snow
12:53 AM 28.0 °F 20.0 °F 25.0 °F 88% 29.47 in 1.5 mi SW 8.1 mph - 0.01 in Snow Light Snow
1:39 AM 26.6 °F 20.0 °F 24.8 °F 93% 29.47 in 2.0 mi WSW 5.8 mph - 0.00 in Snow Light Snow
1:53 AM 27.0 °F 19.5 °F 24.1 °F 89% 29.48 in 3.0 mi West 6.9 mph - 0.00 in Snow Light Snow
2:42 AM 24.8 °F 19.1 °F 21.2 °F 86% 29.47 in 2.0 mi WNW 4.6 mph - 0.00 in Snow Light Snow
3:53 AM 24.1 °F 17.0 °F 19.9 °F 84% 29.49 in 2.0 mi SW 5.8 mph - 0.01 in Snow Light Snow
4:20 AM 23.0 °F 15.8 °F 19.4 °F 86% 29.49 in 1.5 mi SW 5.8 mph - 0.01 in Snow Light Snow
4:53 AM 21.9 °F 12.5 °F 19.0 °F 89% 29.50 in 1.5 mi West 8.1 mph - 0.03 in Snow Light Snow
5:11 AM 21.2 °F 14.9 °F 17.6 °F 86% 29.50 in 2.0 mi WSW 4.6 mph - 0.00 in Snow Light Snow
5:37 AM 21.2 °F 12.6 °F 17.6 °F 86% 29.50 in 1.5 mi WSW 6.9 mph - 0.01 in Snow Light Snow
5:53 AM 21.0 °F 11.4 °F 17.1 °F 85% 29.51 in 1.5 mi West 8.1 mph - 0.01 in Snow Light Snow
6:53 AM 19.9 °F 12.1 °F 17.1 °F 89% 29.52 in 1.0 mi North 5.8 mph - 0.01 in Snow Light Snow
7:53 AM 18.0 °F 7.7 °F 12.9 °F 81% 29.53 in 1.0 mi North 8.1 mph - 0.01 in Snow Light Snow
8:53 AM 16.0 °F 8.8 °F 12.0 °F 84% 29.55 in 1.0 mi NNE 4.6 mph - 0.00 in Snow Light Snow
9:53 AM 15.1 °F 3.3 °F 10.9 °F 84% 29.57 in 1.0 mi North 9.2 mph - 0.02 in Snow Light Snow
10:53 AM 14.0 °F 5.1 °F 10.0 °F 84% 29.58 in 0.5 mi NNE 5.8 mph - 0.03 in Fog , Snow Snow
11:53 AM 12.9 °F -0.2 °F 8.1 °F 81% 29.60 in 0.8 mi NNW 10.4 mph - 0.03 in Snow Light Snow
12:53 PM 12.9 °F 1.6 °F 8.1 °F 81% 29.60 in 0.8 mi North 8.1 mph - 0.01 in Snow Light Snow
1:00 PM 12.2 °F 0.7 °F 8.6 °F 85% 29.59 in 1.0 mi North 8.1 mph - 0.01 in Snow Light Snow
1:53 PM 12.9 °F 2.6 °F 8.1 °F 81% 29.62 in 0.5 mi North 6.9 mph - 0.01 in Snow Snow
2:53 PM 12.9 °F 1.6 °F 8.1 °F 81% 29.64 in 1.0 mi NNW 8.1 mph - 0.02 in Snow Light Snow
3:53 PM 12.0 °F 0.5 °F 6.1 °F 77% 29.67 in 1.0 mi North 8.1 mph - 0.00 in Snow Light Snow
4:53 PM 12.0 °F 4.1 °F 7.0 °F 80% 29.68 in 2.0 mi North 4.6 mph - 0.00 in Snow Light Snow
5:53 PM 12.0 °F 0.5 °F 7.0 °F 80% 29.71 in 1.0 mi NNW 8.1 mph - 0.00 in Snow Light Snow
6:53 PM 10.9 °F -1.8 °F 6.1 °F 81% 29.74 in 1.5 mi NNW 9.2 mph - 0.00 in Snow Light Snow
7:53 PM 10.9 °F 4.7 °F 6.1 °F 81% 29.78 in 1.5 mi North 3.5 mph - 0.01 in Snow Light Snow
8:00 PM 10.4 °F 2.2 °F 6.8 °F 85% 29.77 in 2.5 mi NNW 4.6 mph - 0.00 in Snow Light Snow
8:53 PM 10.9 °F -1.8 °F 6.1 °F 81% 29.82 in 2.5 mi NNW 9.2 mph - 0.00 in Snow Light Snow
9:53 PM 10.9 °F 0.2 °F 6.1 °F 81% 29.86 in 2.5 mi North 6.9 mph - 0.00 in Snow Light Snow
10:53 PM 10.9 °F -1.8 °F 5.0 °F 77% 29.90 in 4.0 mi NNW 9.2 mph - 0.00 in Snow Light Snow
11:53 PM 10.9 °F 2.9 °F 3.9 °F 73% 29.94 in 4.0 mi North 4.6 mph - 0.00 in Snow Light Snow